This is the latest recevied weather packets stored in our database for station/object I1SXT-13. If no packets are shown the sender has not sent any weather packets the latest 1 day(s).
| Time | Temp. | Humidity | Pressure | Rain* | Wind** | Luminosity | Snow |
|---|---|---|---|---|---|---|---|
| 1778071767 | 18.33° C | 81% | 1009.7 hPa | 33.02 mm | - | - | - |
| 1778070267 | 18.89° C | 80% | 1009.9 hPa | 33.02 mm | - | - | - |
| 1778069666 | 18.33° C | 80% | 1010 hPa | 33.02 mm | - | - | - |
| 1778069369 | 18.33° C | 79% | 1009.7 hPa | 33.02 mm | - | - | - |
| 1778069065 | 18.33° C | 79% | 1010 hPa | 33.02 mm | - | - | - |
| 1778067565 | 19.44° C | 79% | 1009.8 hPa | 33.02 mm | - | - | - |
| 1778066964 | 18.89° C | 82% | 1009.7 hPa | 33.02 mm | - | - | - |
| 1778066065 | 18.89° C | 79% | 1010 hPa | 33.02 mm | - | - | - |
| 1778065768 | 18.33° C | 80% | 1010.6 hPa | 33.02 mm | - | - | - |
| 1778065464 | 17.78° C | 83% | 1009.8 hPa | 33.02 mm | - | - | - |
| 1778064870 | 17.22° C | 85% | 1010.5 hPa | 33.02 mm | - | - | - |
| 1778063370 | 17.22° C | 85% | 1010.2 hPa | 33.02 mm | - | - | - |
| 1778063066 | 17.22° C | 86% | 1009.7 hPa | 33.02 mm | - | - | - |
| 1778062769 | 17.78° C | 86% | 1010.3 hPa | 33.02 mm | - | - | - |
| 1778062464 | 17.78° C | 85% | 1010.1 hPa | 33.02 mm | - | - | - |
| 1778061870 | 18.33° C | 86% | 1009.7 hPa | 33.02 mm | - | - | - |
| 1778061566 | 17.78° C | 88% | 1009.6 hPa | 33.02 mm | - | - | - |
| 1778061269 | 17.22° C | 89% | 1010 hPa | 33.02 mm | - | - | - |
| 1778060965 | 17.22° C | 92% | 1009.9 hPa | 33.02 mm | - | - | - |
| 1778060364 | 17.22° C | 91% | 1009.4 hPa | 33.02 mm | - | - | - |
| 1778059168 | 17.22° C | 92% | 1009.9 hPa | 32.77 mm | - | - | - |
| 1778058566 | 17.22° C | 92% | 1008.9 hPa | 30.48 mm | - | - | - |
| 1778058268 | 17.22° C | 93% | 1009.9 hPa | 28.45 mm | - | - | - |
| 1778057970 | 17.22° C | 93% | 1009.3 hPa | 26.16 mm | - | - | - |
| 1778057069 | 17.22° C | 94% | 1009.9 hPa | 18.54 mm | - | - | - |
* Rain since midnight (hover to see other rain measurements)
** Current wind speed in m/s (hover to see current wind gust speed)